Time,TemperatureF,DewpointF,PressureIn,WindDirection,WindDirectionDegrees,WindSpeedMPH,WindSpeedGustMPH,Humidity,HourlyPrecipIn,Conditions,Clouds,dailyrainin,SolarRadiationWatts/m^2,SoftwareType,DateUTC
2013-03-31 00:01:00,28.0,18.0,-100.00,West,260,4.0,6.0,66,-99.99,,,-99.99,0.000000,,2013-03-31 06:01:00,
2013-03-31 00:11:00,28.0,18.0,-100.00,West,260,4.0,6.0,66,-99.99,,,-99.99,0.000000,,2013-03-31 06:11:00,
2013-03-31 00:42:00,28.0,16.0,-100.00,West,265,4.0,8.0,60,-99.99,,,-99.99,0.000000,,2013-03-31 06:42:00,
2013-03-31 00:52:00,28.0,16.0,-100.00,West,265,4.0,8.0,60,-99.99,,,-99.99,0.000000,,2013-03-31 06:52:00,
2013-03-31 01:02:00,28.0,16.0,-100.00,West,265,4.0,8.0,60,-99.99,,,-99.99,0.000000,,2013-03-31 07:02:00,
2013-03-31 01:12:00,28.0,16.0,-100.00,West,265,4.0,8.0,60,-99.99,,,-99.99,0.000000,,2013-03-31 07:12:00,
2013-03-31 01:43:00,28.0,16.0,-100.00,West,261,4.0,7.0,60,-99.99,,,-99.99,0.000000,,2013-03-31 07:43:00,
2013-03-31 01:53:00,28.0,16.0,-100.00,West,261,4.0,7.0,60,-99.99,,,-99.99,0.000000,,2013-03-31 07:53:00,
2013-03-31 02:02:00,28.0,16.0,-100.00,West,261,4.0,7.0,60,-99.99,,,-99.99,0.000000,,2013-03-31 08:02:00,
2013-03-31 02:12:00,28.0,16.0,-100.00,West,261,4.0,7.0,60,-99.99,,,-99.99,0.000000,,2013-03-31 08:12:00,
2013-03-31 02:42:00,27.0,13.0,-100.00,West,272,5.0,8.0,56,-99.99,,,-99.99,0.000000,,2013-03-31 08:42:00,
2013-03-31 02:52:00,27.0,13.0,-100.00,West,272,5.0,8.0,56,-99.99,,,-99.99,0.000000,,2013-03-31 08:52:00,
2013-03-31 03:01:00,27.0,13.0,-100.00,West,272,5.0,8.0,56,-99.99,,,-99.99,0.000000,,2013-03-31 09:01:00,
2013-03-31 03:12:00,27.0,13.0,-100.00,West,272,5.0,8.0,56,-99.99,,,-99.99,0.000000,,2013-03-31 09:12:00,
2013-03-31 03:43:00,27.0,13.0,-100.00,West,276,4.0,7.0,56,-99.99,,,-99.99,0.000000,,2013-03-31 09:43:00,
2013-03-31 03:53:00,27.0,13.0,-100.00,West,276,4.0,7.0,56,-99.99,,,-99.99,0.000000,,2013-03-31 09:53:00,
2013-03-31 04:03:00,27.0,13.0,-100.00,West,276,4.0,7.0,56,-99.99,,,-99.99,0.000000,,2013-03-31 10:03:00,
2013-03-31 04:42:00,27.0,14.0,-100.00,WSW,256,5.0,9.0,58,-99.99,,,-99.99,0.000000,,2013-03-31 10:42:00,
2013-03-31 04:53:00,27.0,14.0,-100.00,WSW,256,5.0,9.0,58,-99.99,,,-99.99,0.000000,,2013-03-31 10:53:00,
2013-03-31 05:02:00,27.0,14.0,-100.00,WSW,256,5.0,9.0,58,-99.99,,,-99.99,0.000000,,2013-03-31 11:02:00,
2013-03-31 05:42:00,26.0,15.0,-100.00,WSW,246,4.0,8.0,62,-99.99,,,-99.99,0.000000,,2013-03-31 11:42:00,
2013-03-31 05:52:00,26.0,15.0,-100.00,WSW,246,4.0,8.0,62,-99.99,,,-99.99,0.000000,,2013-03-31 11:52:00,
2013-03-31 06:02:00,26.0,15.0,-100.00,WSW,246,4.0,8.0,62,-99.99,,,-99.99,0.000000,,2013-03-31 12:02:00,
2013-03-31 06:42:00,26.0,14.0,-100.00,West,263,1.0,8.0,60,-99.99,,,-99.99,0.000000,,2013-03-31 12:42:00,
2013-03-31 06:52:00,26.0,14.0,-100.00,West,263,1.0,8.0,60,-99.99,,,-99.99,0.000000,,2013-03-31 12:52:00,
2013-03-31 07:12:00,26.0,14.0,-100.00,West,263,1.0,8.0,60,-99.99,,,-99.99,0.000000,,2013-03-31 13:12:00,
2013-03-31 07:42:00,27.0,14.0,-100.00,West,264,0.0,0.0,57,-99.99,,,-99.99,2.000000,,2013-03-31 13:42:00,
2013-03-31 07:53:00,27.0,14.0,-100.00,West,264,0.0,0.0,57,-99.99,,,-99.99,2.000000,,2013-03-31 13:53:00,
2013-03-31 08:02:00,27.0,14.0,-100.00,West,264,0.0,0.0,57,-99.99,,,-99.99,2.000000,,2013-03-31 14:02:00,
2013-03-31 08:11:00,27.0,14.0,-100.00,West,264,0.0,0.0,57,-99.99,,,-99.99,2.000000,,2013-03-31 14:11:00,
2013-03-31 08:43:00,33.0,15.0,-100.00,WSW,246,4.0,7.0,48,-99.99,,,-99.99,87.000000,,2013-03-31 14:43:00,
2013-03-31 08:52:00,33.0,15.0,-100.00,WSW,246,4.0,7.0,48,-99.99,,,-99.99,87.000000,,2013-03-31 14:52:00,
2013-03-31 09:02:00,33.0,15.0,-100.00,WSW,246,4.0,7.0,48,-99.99,,,-99.99,87.000000,,2013-03-31 15:02:00,
2013-03-31 09:12:00,33.0,15.0,-100.00,WSW,246,4.0,7.0,48,-99.99,,,-99.99,87.000000,,2013-03-31 15:12:00,
2013-03-31 09:43:00,44.0,17.0,-100.00,ENE,65,4.0,6.0,34,-99.99,,,-99.99,361.000000,,2013-03-31 15:43:00,
2013-03-31 09:53:00,44.0,17.0,-100.00,ENE,65,4.0,6.0,34,-99.99,,,-99.99,361.000000,,2013-03-31 15:53:00,
2013-03-31 10:02:00,44.0,17.0,-100.00,ENE,65,4.0,6.0,34,-99.99,,,-99.99,361.000000,,2013-03-31 16:02:00,
2013-03-31 10:13:00,44.0,17.0,-100.00,ENE,65,4.0,6.0,34,-99.99,,,-99.99,361.000000,,2013-03-31 16:13:00,
2013-03-31 10:43:00,44.0,18.0,-100.00,ESE,102,0.0,12.0,35,-99.99,,,-99.99,582.000000,,2013-03-31 16:43:00,
2013-03-31 10:53:00,44.0,18.0,-100.00,ESE,102,0.0,12.0,35,-99.99,,,-99.99,582.000000,,2013-03-31 16:53:00,
2013-03-31 11:02:00,44.0,18.0,-100.00,ESE,102,0.0,12.0,35,-99.99,,,-99.99,582.000000,,2013-03-31 17:02:00,
2013-03-31 11:12:00,44.0,18.0,-100.00,ESE,102,0.0,12.0,35,-99.99,,,-99.99,582.000000,,2013-03-31 17:12:00,
2013-03-31 11:43:00,46.0,20.0,-100.00,ESE,111,0.0,0.0,35,-99.99,,,-99.99,763.000000,,2013-03-31 17:43:00,
2013-03-31 11:52:00,46.0,20.0,-100.00,ESE,111,0.0,0.0,35,-99.99,,,-99.99,763.000000,,2013-03-31 17:52:00,
2013-03-31 12:02:00,46.0,20.0,-100.00,ESE,111,0.0,0.0,35,-99.99,,,-99.99,763.000000,,2013-03-31 18:02:00,
2013-03-31 12:12:00,46.0,20.0,-100.00,ESE,111,0.0,0.0,35,-99.99,,,-99.99,763.000000,,2013-03-31 18:12:00,
2013-03-31 12:42:00,50.0,21.0,-100.00,SW,234,6.0,19.0,31,-99.99,,,-99.99,895.000000,,2013-03-31 18:42:00,
2013-03-31 12:53:00,50.0,21.0,-100.00,SW,234,6.0,19.0,31,-99.99,,,-99.99,895.000000,,2013-03-31 18:53:00,
2013-03-31 13:02:00,50.0,21.0,-100.00,SW,234,6.0,19.0,31,-99.99,,,-99.99,895.000000,,2013-03-31 19:02:00,
2013-03-31 13:12:00,50.0,21.0,-100.00,SW,234,6.0,19.0,31,-99.99,,,-99.99,895.000000,,2013-03-31 19:12:00,
2013-03-31 13:43:00,52.0,20.0,-100.00,SW,217,6.0,17.0,28,-99.99,,,-99.99,952.000000,,2013-03-31 19:43:00,
2013-03-31 13:54:00,52.0,20.0,-100.00,SW,217,6.0,17.0,28,-99.99,,,-99.99,952.000000,,2013-03-31 19:54:00,
2013-03-31 14:02:00,52.0,20.0,-100.00,SW,217,6.0,17.0,28,-99.99,,,-99.99,952.000000,,2013-03-31 20:02:00,
2013-03-31 14:12:00,52.0,20.0,-100.00,SW,217,6.0,17.0,28,-99.99,,,-99.99,952.000000,,2013-03-31 20:12:00,
2013-03-31 14:43:00,52.0,20.0,-100.00,WSW,250,6.0,20.0,28,-99.99,,,-99.99,1045.000000,,2013-03-31 20:43:00,
2013-03-31 14:52:00,52.0,20.0,-100.00,WSW,250,6.0,20.0,28,-99.99,,,-99.99,1045.000000,,2013-03-31 20:52:00,
2013-03-31 15:02:00,52.0,20.0,-100.00,WSW,250,6.0,20.0,28,-99.99,,,-99.99,1045.000000,,2013-03-31 21:02:00,
2013-03-31 15:12:00,52.0,20.0,-100.00,WSW,250,6.0,20.0,28,-99.99,,,-99.99,1045.000000,,2013-03-31 21:12:00,
2013-03-31 15:43:00,51.0,21.0,-100.00,West,267,9.0,24.0,30,-99.99,,,-99.99,977.000000,,2013-03-31 21:43:00,
2013-03-31 15:53:00,51.0,21.0,-100.00,West,267,9.0,24.0,30,-99.99,,,-99.99,977.000000,,2013-03-31 21:53:00,
2013-03-31 16:03:00,51.0,21.0,-100.00,West,267,9.0,24.0,30,-99.99,,,-99.99,977.000000,,2013-03-31 22:03:00,
2013-03-31 16:12:00,51.0,21.0,-100.00,West,267,9.0,24.0,30,-99.99,,,-99.99,977.000000,,2013-03-31 22:12:00,
2013-03-31 16:43:00,51.0,21.0,-100.00,WSW,257,6.0,17.0,31,-99.99,,,-99.99,877.000000,,2013-03-31 22:43:00,
2013-03-31 16:53:00,51.0,21.0,-100.00,WSW,257,6.0,17.0,31,-99.99,,,-99.99,877.000000,,2013-03-31 22:53:00,
2013-03-31 17:02:00,51.0,21.0,-100.00,WSW,257,6.0,17.0,31,-99.99,,,-99.99,877.000000,,2013-03-31 23:02:00,
2013-03-31 17:12:00,51.0,21.0,-100.00,WSW,257,6.0,17.0,31,-99.99,,,-99.99,877.000000,,2013-03-31 23:12:00,
2013-03-31 17:43:00,50.0,22.0,-100.00,West,273,4.0,16.0,33,-99.99,,,-99.99,664.000000,,2013-03-31 23:43:00,
2013-03-31 17:53:00,50.0,22.0,-100.00,West,273,4.0,16.0,33,-99.99,,,-99.99,664.000000,,2013-03-31 23:53:00,
2013-03-31 18:02:00,50.0,22.0,-100.00,West,273,4.0,16.0,33,-99.99,,,-99.99,664.000000,,2013-04-01 00:02:00,
2013-03-31 18:12:00,50.0,22.0,-100.00,West,273,4.0,16.0,33,-99.99,,,-99.99,664.000000,,2013-04-01 00:12:00,
2013-03-31 18:43:00,42.0,21.0,-100.00,WSW,254,5.0,18.0,43,-99.99,,,-99.99,385.000000,,2013-04-01 00:43:00,
2013-03-31 18:53:00,42.0,21.0,-100.00,WSW,254,5.0,18.0,43,-99.99,,,-99.99,385.000000,,2013-04-01 00:53:00,
2013-03-31 19:02:00,42.0,21.0,-100.00,WSW,254,5.0,18.0,43,-99.99,,,-99.99,385.000000,,2013-04-01 01:02:00,
2013-03-31 19:12:00,42.0,21.0,-100.00,WSW,254,5.0,18.0,43,-99.99,,,-99.99,385.000000,,2013-04-01 01:12:00,
2013-03-31 19:43:00,38.0,22.0,-100.00,East,79,7.0,12.0,52,-99.99,,,-99.99,74.000000,,2013-04-01 01:43:00,
2013-03-31 19:53:00,38.0,22.0,-100.00,East,79,7.0,12.0,52,-99.99,,,-99.99,74.000000,,2013-04-01 01:53:00,
2013-03-31 20:02:00,38.0,22.0,-100.00,East,79,7.0,12.0,52,-99.99,,,-99.99,74.000000,,2013-04-01 02:02:00,
2013-03-31 20:12:00,38.0,22.0,-100.00,East,79,7.0,12.0,52,-99.99,,,-99.99,74.000000,,2013-04-01 02:12:00,
2013-03-31 20:43:00,34.0,22.0,-100.00,NNE,16,1.0,7.0,61,-99.99,,,-99.99,11.000000,,2013-04-01 02:43:00,
2013-03-31 20:53:00,34.0,22.0,-100.00,NNE,16,1.0,7.0,61,-99.99,,,-99.99,11.000000,,2013-04-01 02:53:00,
2013-03-31 21:02:00,34.0,22.0,-100.00,NNE,16,1.0,7.0,61,-99.99,,,-99.99,11.000000,,2013-04-01 03:02:00,
2013-03-31 21:12:00,34.0,22.0,-100.00,NNE,16,1.0,7.0,61,-99.99,,,-99.99,11.000000,,2013-04-01 03:12:00,
2013-03-31 21:43:00,30.0,21.0,-100.00,SSW,200,1.0,3.0,69,-99.99,,,-99.99,0.000000,,2013-04-01 03:43:00,
2013-03-31 21:53:00,30.0,21.0,-100.00,SSW,200,1.0,3.0,69,-99.99,,,-99.99,0.000000,,2013-04-01 03:53:00,
2013-03-31 22:02:00,30.0,21.0,-100.00,SSW,200,1.0,3.0,69,-99.99,,,-99.99,0.000000,,2013-04-01 04:02:00,
2013-03-31 22:12:00,30.0,21.0,-100.00,SSW,200,1.0,3.0,69,-99.99,,,-99.99,0.000000,,2013-04-01 04:12:00,
2013-03-31 22:43:00,28.0,21.0,-100.00,West,276,1.0,2.0,76,-99.99,,,-99.99,0.000000,,2013-04-01 04:43:00,
2013-03-31 22:53:00,28.0,21.0,-100.00,West,276,1.0,2.0,76,-99.99,,,-99.99,0.000000,,2013-04-01 04:53:00,
2013-03-31 23:02:00,28.0,21.0,-100.00,West,276,1.0,2.0,76,-99.99,,,-99.99,0.000000,,2013-04-01 05:02:00,
2013-03-31 23:12:00,28.0,21.0,-100.00,West,276,1.0,2.0,76,-99.99,,,-99.99,0.000000,,2013-04-01 05:12:00,
2013-03-31 23:43:00,27.0,21.0,-100.00,WSW,245,3.0,4.0,78,-99.99,,,-99.99,0.000000,,2013-04-01 05:43:00,
2013-03-31 23:53:00,27.0,21.0,-100.00,WSW,245,3.0,4.0,78,-99.99,,,-99.99,0.000000,,2013-04-01 05:53:00,